When you browse on this site, cookies collect data to enhance your experience and personalize the content and advertising you see.
Visit our Privacy Policy to learn more. By continuing to use the site, you agree to this use of cookies and data.
  • In Czech Republic
  • List of Countries
  • For 7 days
  • Water Temperature
  • Satellite Maps
  • Weather Map
  • Weather Widgets
  • user-avatar
    Login

    Hourly Weather Spartak

    Today, 20 May, Monday

    Time Temperature Precipitation Wind Pressure Humidity
    00:00 +16°C° 0 mm 3 mps 748 mmHg 84%
    01:00 +16°C° 0 mm 3 mps 748 mmHg 85%
    02:00 +14°C° 0 mm 3 mps 748 mmHg 86%
    03:00 +14°C° 0 mm 3 mps 748 mmHg 85%
    04:00 +14°C° 0 mm 4 mps 748 mmHg 84%
    05:00 +14°C° 0 mm 4 mps 748 mmHg 84%
    06:00 +17°C° 0 mm 4 mps 748 mmHg 77%
    07:00 +19°C° 0 mm 5 mps 748 mmHg 71%
    08:00 +20°C° 0 mm 5 mps 748 mmHg 65%
    09:00 +22°C° 0 mm 6 mps 748 mmHg 61%
    10:00 +23°C° 0 mm 6 mps 748 mmHg 57%
    11:00 +24°C° 0 mm 6 mps 748 mmHg 54%
    12:00 +26°C° 0 mm 6 mps 748 mmHg 52%
    13:00 +26°C° 0 mm 6 mps 748 mmHg 50%
    14:00 +26°C° 0 mm 7 mps 748 mmHg 48%
    15:00 +26°C° 0 mm 6 mps 748 mmHg 50%
    16:00 +26°C° 0 mm 6 mps 747 mmHg 52%
    17:00 +25°C° 0 mm 5 mps 747 mmHg 54%
    18:00 +23°C° 0 mm 5 mps 747 mmHg 59%
    19:00 +21°C° 0 mm 5 mps 747 mmHg 64%
    20:00 +19°C° 0 mm 4 mps 747 mmHg 69%
    21:00 +19°C° 0 mm 5 mps 747 mmHg 69%
    22:00 +17°C° 0 mm 5 mps 747 mmHg 68%
    23:00 +17°C° 0 mm 5 mps 747 mmHg 68%

    Tomorrow, 21 May, Tuesday

    Time Temperature Precipitation Wind Pressure Humidity
    00:00 +16°C° 0 mm 5 mps 747 mmHg 68%
    01:00 +16°C° 0 mm 5 mps 747 mmHg 68%
    02:00 +15°C° 0 mm 5 mps 747 mmHg 68%
    03:00 +15°C° 0 mm 5 mps 747 mmHg 69%
    04:00 +15°C° 0 mm 5 mps 747 mmHg 70%
    05:00 +15°C° 0 mm 5 mps 746 mmHg 71%
    06:00 +16°C° 0 mm 5 mps 746 mmHg 69%
    07:00 +17°C° 0 mm 6 mps 746 mmHg 68%
    08:00 +19°C° 0 mm 6 mps 746 mmHg 67%
    09:00 +21°C° 0 mm 6 mps 746 mmHg 63%
    10:00 +22°C° 0 mm 7 mps 746 mmHg 60%
    11:00 +24°C° 0 mm 7 mps 746 mmHg 57%
    12:00 +23°C° 1 mm 7 mps 746 mmHg 61%
    13:00 +23°C° 1 mm 7 mps 745 mmHg 66%
    14:00 +23°C° 1 mm 7 mps 745 mmHg 70%
    15:00 +22°C° 1.1 mm 6 mps 745 mmHg 74%
    16:00 +21°C° 1.1 mm 6 mps 745 mmHg 78%
    17:00 +21°C° 1.1 mm 5 mps 744 mmHg 82%
    18:00 +20°C° 0 mm 4 mps 744 mmHg 82%
    19:00 +19°C° 0 mm 4 mps 744 mmHg 83%
    20:00 +18°C° 0 mm 4 mps 744 mmHg 83%
    21:00 +18°C° 0 mm 4 mps 744 mmHg 85%
    22:00 +17°C° 0 mm 4 mps 744 mmHg 87%
    23:00 +15°C° 0 mm 4 mps 744 mmHg 89%

    Day after tomorrow, 22 May, Wednesday

    Time Temperature Precipitation Wind Pressure Humidity
    00:00 +16°C° 0 mm 3 mps 744 mmHg 91%
    01:00 +14°C° 0 mm 3 mps 744 mmHg 93%
    02:00 +14°C° 0 mm 3 mps 744 mmHg 96%
    03:00 +13°C° 0 mm 3 mps 744 mmHg 96%
    04:00 +14°C° 0 mm 2 mps 744 mmHg 97%
    05:00 +14°C° 0 mm 2 mps 744 mmHg 98%
    06:00 +16°C° 0 mm 2 mps 744 mmHg 92%
    07:00 +18°C° 0 mm 2 mps 744 mmHg 85%
    08:00 +20°C° 0 mm 2 mps 744 mmHg 79%
    09:00 +21°C° 0 mm 2 mps 744 mmHg 71%
    10:00 +23°C° 0 mm 2 mps 744 mmHg 63%
    11:00 +25°C° 0 mm 3 mps 744 mmHg 55%
    12:00 +25°C° 0 mm 3 mps 744 mmHg 52%
    13:00 +26°C° 0 mm 3 mps 744 mmHg 49%
    14:00 +26°C° 0 mm 3 mps 743 mmHg 46%
    15:00 +26°C° 0 mm 3 mps 743 mmHg 48%
    16:00 +26°C° 0 mm 3 mps 743 mmHg 50%
    17:00 +26°C° 0 mm 2 mps 743 mmHg 51%
    18:00 +24°C° 0 mm 2 mps 743 mmHg 58%
    19:00 +21°C° 0 mm 2 mps 743 mmHg 64%
    20:00 +20°C° 0 mm 1 mps 743 mmHg 71%
    21:00 +19°C° 0 mm 1 mps 743 mmHg 74%
    22:00 +18°C° 0 mm 1 mps 743 mmHg 77%
    23:00 +15°C° 0 mm 0 mps 743 mmHg 80%

    23 May, Thursday

    Time Temperature Precipitation Wind Pressure Humidity
    00:00 +14°C° 0 mm 0 mps 743 mmHg 82%
    01:00 +14°C° 0 mm 0 mps 743 mmHg 83%
    02:00 +14°C° 0 mm 0 mps 743 mmHg 84%
    03:00 +15°C° 0 mm 1 mps 743 mmHg 84%
    04:00 +15°C° 0 mm 1 mps 743 mmHg 84%
    05:00 +15°C° 0 mm 1 mps 743 mmHg 84%
    06:00 +16°C° 0 mm 0 mps 743 mmHg 77%
    07:00 +18°C° 0 mm 0 mps 743 mmHg 71%
    08:00 +20°C° 0 mm 0 mps 743 mmHg 65%
    09:00 +23°C° 0 mm 1 mps 743 mmHg 60%
    10:00 +24°C° 0 mm 1 mps 743 mmHg 55%
    11:00 +25°C° 0 mm 2 mps 743 mmHg 50%
    12:00 +26°C° 0 mm 2 mps 743 mmHg 48%
    13:00 +26°C° 0 mm 2 mps 743 mmHg 46%
    14:00 +27°C° 0 mm 2 mps 743 mmHg 44%
    15:00 +26°C° 0 mm 2 mps 743 mmHg 46%
    16:00 +26°C° 0 mm 1 mps 742 mmHg 49%
    17:00 +25°C° 0 mm 1 mps 742 mmHg 52%
    18:00 +24°C° 0 mm 1 mps 742 mmHg 57%
    19:00 +22°C° 0 mm 1 mps 742 mmHg 62%
    20:00 +20°C° 0 mm 1 mps 742 mmHg 67%
    21:00 +19°C° 0 mm 1 mps 742 mmHg 72%
    22:00 +19°C° 0 mm 1 mps 742 mmHg 77%
    23:00 +18°C° 0 mm 1 mps 742 mmHg 83%

    24 May, Friday

    Time Temperature Precipitation Wind Pressure Humidity
    00:00 +16°C° 1.2 mm 1 mps 742 mmHg 86%
    01:00 +16°C° 1.2 mm 1 mps 742 mmHg 89%
    02:00 +16°C° 1.2 mm 1 mps 742 mmHg 93%
    03:00 +16°C° 0.2 mm 1 mps 742 mmHg 93%
    04:00 +16°C° 0.2 mm 1 mps 742 mmHg 93%
    05:00 +16°C° 0.2 mm 1 mps 742 mmHg 92%
    06:00 +18°C° 0.6 mm 1 mps 742 mmHg 90%
    07:00 +19°C° 0.6 mm 1 mps 742 mmHg 87%
    08:00 +19°C° 0.6 mm 1 mps 742 mmHg 85%
    09:00 +19°C° 0.7 mm 2 mps 741 mmHg 82%
    10:00 +20°C° 0.7 mm 2 mps 741 mmHg 79%
    11:00 +20°C° 0.7 mm 2 mps 741 mmHg 76%
    12:00 +21°C° 1.2 mm 2 mps 741 mmHg 74%
    13:00 +21°C° 1.2 mm 2 mps 740 mmHg 73%
    14:00 +21°C° 1.2 mm 2 mps 740 mmHg 71%
    15:00 +21°C° 0.2 mm 2 mps 740 mmHg 70%
    16:00 +23°C° 0.2 mm 2 mps 740 mmHg 68%
    17:00 +23°C° 0.2 mm 2 mps 739 mmHg 67%
    18:00 +20°C° 0.1 mm 2 mps 739 mmHg 74%
    19:00 +19°C° 0.1 mm 2 mps 739 mmHg 81%
    20:00 +17°C° 0.1 mm 2 mps 739 mmHg 88%
    21:00 +16°C° 0 mm 2 mps 739 mmHg 89%
    22:00 +16°C° 0 mm 2 mps 739 mmHg 91%
    23:00 +15°C° 0 mm 2 mps 739 mmHg 93%

    25 May, Saturday

    Time Temperature Precipitation Wind Pressure Humidity
    00:00 +15°C° 0 mm 2 mps 739 mmHg 94%
    01:00 +14°C° 0 mm 2 mps 738 mmHg 95%
    02:00 +14°C° 0 mm 2 mps 738 mmHg 96%
    03:00 +14°C° 0 mm 2 mps 738 mmHg 97%
    04:00 +14°C° 0 mm 2 mps 738 mmHg 97%
    05:00 +14°C° 0 mm 2 mps 738 mmHg 98%
    06:00 +15°C° 0 mm 2 mps 738 mmHg 94%
    07:00 +16°C° 0 mm 3 mps 739 mmHg 91%
    08:00 +17°C° 0 mm 3 mps 739 mmHg 87%
    09:00 +18°C° 0 mm 3 mps 738 mmHg 86%
    10:00 +18°C° 0 mm 3 mps 738 mmHg 85%
    11:00 +18°C° 0 mm 3 mps 738 mmHg 84%
    12:00 +19°C° 0 mm 3 mps 738 mmHg 81%
    13:00 +19°C° 0 mm 3 mps 738 mmHg 79%
    14:00 +20°C° 0 mm 4 mps 738 mmHg 77%
    15:00 +20°C° 0 mm 4 mps 738 mmHg 77%
    16:00 +20°C° 0 mm 4 mps 738 mmHg 76%
    17:00 +21°C° 0 mm 4 mps 738 mmHg 76%
    18:00 +19°C° 0.1 mm 4 mps 738 mmHg 81%
    19:00 +18°C° 0.1 mm 3 mps 738 mmHg 86%
    20:00 +17°C° 0.1 mm 3 mps 738 mmHg 91%
    21:00 +17°C° 0 mm 3 mps 738 mmHg 92%
    22:00 +16°C° 0 mm 3 mps 738 mmHg 94%
    23:00 +15°C° 0 mm 4 mps 738 mmHg 95%
    Show more